User: anonymous   Login
Location: Nairn
(57.5833°N, 3.8667°W)
Time: 08:48:04
(UTC+00:00)
Language:

Cosmos 1354 Rocket - Orbit

View from above orbital plane
View from above orbital plane
View from above satellite
View from above satellite

Ground track
Ground track

The orbit data is extracted from the following two-line orbital elements,

1 13149U 82037B   20293.95288411 +.00000064 +00000-0 +31317-4 0  9991
2 13149 074.0424 175.6263 0012000 079.8235 291.2305 14.35359745012807
Epoch (UTC): 19 October 2020 22:52:09
Eccentricity: 0.0012000
inclination: 74.0424°
perigee height: 765 km
apogee height: 782 km
right ascension of ascending node: 175.6263°
argument of perigee: 79.8235°
revolutions per day: 14.35359745
mean anomaly at epoch: 291.2305°
orbit number at epoch: 1280

The dashed part of the orbit path shows where the satellite is in the earth's shadow,  

DLR